[[{"header":{"parameterUnit":"m.s-1","parameterCategory":1,"la1":30.2991,"la2":30.254,"lo1":-89.0895,"lo2":-89.0444,"dy":0.0017,"dx":0.0017,"nx":28,"ny":28,"refTime":"2024-05-19T03:00:00:Z","depth":0,"parameterNumber":2,"parameterNumberName":"U-component_of_WINDS"},"data":[0,0,0,0,0,0,0,0,0,0,0,0,0,0,0,0,0,0,0,0,0,0,0,0,0,0,0,0,0,0,0,0,0,0,0,0,0,0,0,0,0,0,0,0,0,0,0,0,0,0,0,0,0,0,0,0,0,0,1.2337,1.2337,0,1.2397,1.2397,1.2398,1.2352,1.235,1.2348,1.2346,1.241,1.2414,1.2417,0,0,0,0,0,0,0,0,0,0,0,0,0,1.2185,1.2188,1.2336,1.2337,1.2338,1.2397,1.2397,1.2398,1.2352,1.235,1.2347,1.2345,1.2409,1.2413,1.2417,0,0,0,0,0,0,0,0,0,0,0,0,0,1.2249,1.2189,1.2336,1.2322,1.2321,1.2396,1.2397,1.2398,1.2353,1.2349,1.2346,1.2344,1.2408,1.2413,1.2418,1.2511,0,0,1.2434,1.2437,0,0,0,0,0,0,0,0,1.2245,1.2254,1.2323,1.2323,1.2322,1.2363,1.2367,1.2436,1.2353,1.2341,1.2346,1.2342,1.2397,1.2403,1.2421,1.2514,1.2517,1.2435,1.2438,1.2441,1.2442,0,0,0,0,0,0,0,1.2241,1.2251,1.236,1.2324,1.2324,1.2314,1.2319,1.238,1.2385,1.2342,1.2338,1.2346,1.2396,1.2416,1.2422,1.2518,1.2435,1.244,1.2443,1.2445,1.2692,1.2695,0,0,0,0,0,0,1.2237,1.2248,1.2358,1.2362,1.2275,1.2319,1.2325,1.2353,1.2384,1.2386,1.2348,1.2344,1.2408,1.2416,1.2424,1.2536,1.244,1.2446,1.2449,1.2689,1.2693,1.2696,0,0,0,0,0,0,1.2234,1.2248,1.2356,1.2304,1.2317,1.2325,1.2357,1.2356,1.2376,1.239,1.239,1.2367,1.2406,1.2417,1.249,1.2537,1.2448,1.2453,1.2685,1.269,1.2695,1.2759,0,0,0,0,0,0,1.223,1.2247,1.2281,1.2305,1.232,1.242,1.236,1.236,1.2385,1.2379,1.2408,1.241,1.2405,1.2482,1.2495,1.2543,1.2457,1.2681,1.2687,1.2693,1.2753,1.2766,1.2777,0,0,0,0,0,1.2225,1.2297,1.2283,1.2297,1.2363,1.2422,1.2431,1.2423,1.2389,1.2424,1.2433,1.2409,1.253,1.249,1.2505,1.2555,1.2677,1.2685,1.2692,1.2747,1.2763,1.2776,0,0,0,0,0,0,1.2279,1.23,1.2285,1.2367,1.2393,1.2414,1.2458,1.244,1.2477,1.247,1.246,1.2467,1.2544,1.2557,1.2512,1.2647,1.2599,1.2609,1.2635,1.2651,1.2662,1.2657,1.2461,0,0,0,0,0,1.2301,1.2346,1.2362,1.2434,1.2448,1.2451,1.2477,1.2469,1.2496,1.2506,1.2521,1.2549,1.2593,1.2623,1.2665,1.2755,1.2761,1.2797,1.2809,1.2819,1.2828,1.2877,1.2893,1.2721,1.2721,1.2721,0,0,1.2346,1.2363,1.2392,1.2445,1.2464,1.2512,1.2461,1.2513,1.2549,1.2515,1.2584,1.2596,1.2627,1.2709,1.2746,1.2722,1.2877,1.2828,1.2836,1.2839,1.2886,1.2902,1.2917,1.2726,1.2725,1.2724,0,0,1.2452,1.2469,1.253,1.2551,1.2581,1.2583,1.2598,1.2623,1.2629,1.2699,1.2674,1.2717,1.2794,1.2817,1.2839,1.2956,1.2935,1.297,1.3032,1.308,1.3094,1.3106,1.3147,1.3162,1.2979,1.298,1.298,0,1.2503,1.2574,1.2565,1.2619,1.2644,1.2615,1.2677,1.2698,1.2741,1.2759,1.2732,1.2828,1.2847,1.2934,1.2962,1.2981,1.2998,1.2966,1.3092,1.3104,1.3115,1.3155,1.317,1.2984,1.2983,1.2983,1.2982,0,1.2636,1.2686,1.2732,1.2773,1.2803,1.2861,1.2862,1.2894,1.2884,1.289,1.2962,1.2984,1.3029,1.305,1.3041,1.3136,1.3121,1.3093,1.3044,1.3136,1.3172,1.3188,1.2989,1.2988,1.2987,1.2986,0,0,1.2775,1.2812,1.2829,1.2848,1.288,1.2918,1.2976,1.3021,1.3048,1.3079,1.3128,1.3194,1.3169,1.3194,1.3188,1.3231,1.3322,1.3198,1.3199,1.322,1.3428,1.3447,1.3465,1.3309,1.3312,1.3314,1.3425,0,1.2882,1.2982,1.2976,1.307,1.3116,1.3091,1.3142,1.3168,1.3175,1.3216,1.3225,1.3272,1.3236,1.325,1.3291,1.3302,1.3363,1.3294,1.3354,1.3356,1.3345,1.3484,1.3504,1.3608,1.344,1.3442,1.3444,0,1.3019,1.3054,1.3153,1.3179,1.3198,1.3243,1.3284,1.3324,1.3353,1.3356,1.3384,1.3372,1.3432,1.3383,1.3465,1.3418,1.3443,1.3452,1.3456,1.346,1.3404,1.3491,1.3641,1.3657,1.3467,1.3465,1.3463,0,1.311,1.3182,1.325,1.3268,1.33,1.3333,1.3348,1.3374,1.3402,1.3438,1.3456,1.3499,1.3523,1.3557,1.3557,1.3521,1.3641,1.3591,1.3645,1.3645,1.3669,1.3667,1.3825,1.3688,1.3688,1.3687,1.3687,0,1.3228,1.3289,1.3292,1.3333,1.3402,1.3396,1.3464,1.3476,1.35,1.3545,1.3527,1.3569,1.3567,1.3611,1.3611,1.368,1.3691,1.3695,1.3694,1.3696,1.3695,1.371,1.3702,1.3692,1.3691,1.369,1.3689,0,1.3339,1.3344,1.3416,1.3442,1.345,1.3499,1.3521,1.3561,1.3568,1.3625,1.3638,1.3649,1.3699,1.3703,1.3761,1.3762,1.3844,1.3837,1.3834,1.3832,1.3885,1.3879,1.4056,1.4079,1.3929,1.393,1.3931,0,1.3414,1.346,1.3491,1.3519,1.3536,1.3582,1.361,1.3607,1.3637,1.3676,1.3712,1.376,1.3798,1.3881,1.3894,1.3939,1.3931,1.399,1.3938,1.3938,1.3931,1.3927,1.3932,1.4,1.4001,1.4003,1.4004,0,1.3545,1.3545,1.3586,1.3628,1.3662,1.3695,1.3726,1.3751,1.3752,1.3787,1.3838,1.3868,1.3928,1.3976,1.4021,1.4038,1.4021,1.4021,1.4035,1.4036,1.4032,1.4034,1.386,1.4016,1.4015,1.4014,1.4013,1.4013,1.3639,1.3679,1.3707,1.3754,1.3777,1.3807,1.3846,1.3858,1.39,1.3948,1.3945,1.4002,1.4032,1.4089,1.411,1.4155,1.4135,1.4156,1.4161,1.4166,1.4171,1.4027,1.4163,1.4163,1.4162,1.4162,1.4162,0,1.3768,1.3785,1.3828,1.3872,1.3909,1.3891,1.3925,1.3957,1.4007,1.4036,1.4075,1.4134,1.4182,1.42,1.4247,1.4279,1.4273,1.4292,1.4288,1.4292,1.4186,1.4169,1.4296,1.4296,1.4296,1.4296,1.4296,1.4296,1.3839,1.3906,1.391,1.399,1.4007,1.4061,1.4082,1.411,1.4134,1.4201,1.424,1.4252,1.4277,1.4325,1.4369,1.4373,1.439,1.4412,1.4413,1.4313,1.43,1.4287,1.427,1.4416,1.4416,1.4515,1.4516,1.4516]},{"header":{"parameterUnit":"m.s-1","parameterCategory":1,"la1":30.2991,"la2":30.254,"lo1":-89.0895,"lo2":-89.0444,"dy":0.0017,"dx":0.0017,"nx":28,"ny":28,"refTime":"2024-05-19T03:00:00:Z","depth":0,"parameterNumber":3,"parameterNumberName":"V-component_of_WINDS"},"data":[0,0,0,0,0,0,0,0,0,0,0,0,0,0,0,0,0,0,0,0,0,0,0,0,0,0,0,0,0,0,0,0,0,0,0,0,0,0,0,0,0,0,0,0,0,0,0,0,0,0,0,0,0,0,0,0,0,0,1.4524,1.4525,0,1.4684,1.4686,1.4688,1.4668,1.4666,1.4663,1.4661,1.4824,1.4831,1.4838,0,0,0,0,0,0,0,0,0,0,0,0,0,1.4196,1.4202,1.4523,1.4525,1.4527,1.4684,1.4686,1.4689,1.4669,1.4666,1.4663,1.466,1.4822,1.483,1.4838,0,0,0,0,0,0,0,0,0,0,0,0,0,1.4346,1.4204,1.4523,1.4537,1.4539,1.4684,1.4686,1.4689,1.467,1.4666,1.4662,1.4658,1.4819,1.4829,1.4839,1.498,0,0,1.487,1.4875,0,0,0,0,0,0,0,0,1.4337,1.4358,1.4533,1.4536,1.4539,1.4652,1.4631,1.4787,1.467,1.462,1.4661,1.4656,1.477,1.4784,1.4823,1.4988,1.4995,1.4871,1.4877,1.4882,1.4885,0,0,0,0,0,0,0,1.4327,1.4351,1.4587,1.4535,1.4539,1.4534,1.455,1.466,1.4715,1.4624,1.4623,1.4642,1.4771,1.4813,1.4827,1.4997,1.4871,1.488,1.4886,1.489,1.5283,1.5287,0,0,0,0,0,0,1.4313,1.4342,1.4582,1.4592,1.4427,1.4543,1.4562,1.462,1.4714,1.4724,1.4646,1.4641,1.4798,1.4815,1.4832,1.5002,1.4882,1.4891,1.4897,1.5279,1.5284,1.5288,0,0,0,0,0,0,1.4307,1.4335,1.4575,1.4467,1.4497,1.4552,1.4618,1.4625,1.4667,1.473,1.4739,1.4679,1.4795,1.4818,1.4943,1.5007,1.4896,1.4905,1.5273,1.528,1.5286,1.5343,0,0,0,0,0,0,1.4297,1.4333,1.4388,1.4468,1.4503,1.4685,1.4622,1.4631,1.4685,1.468,1.4763,1.4773,1.4794,1.4928,1.4953,1.5019,1.4913,1.5268,1.5276,1.5284,1.5336,1.5351,1.5364,0,0,0,0,0,1.4286,1.4398,1.4391,1.442,1.4573,1.4689,1.4708,1.473,1.469,1.4745,1.4785,1.4771,1.4996,1.4941,1.4969,1.5039,1.5264,1.5274,1.5283,1.533,1.5348,1.5363,0,0,0,0,0,0,1.4324,1.4409,1.4402,1.4544,1.4609,1.4685,1.4756,1.4749,1.4827,1.482,1.4842,1.4861,1.4987,1.5026,1.4963,1.5179,1.5124,1.514,1.515,1.5168,1.5181,1.517,1.4922,0,0,0,0,0,1.4349,1.4436,1.4505,1.4623,1.4657,1.47,1.4752,1.4762,1.4831,1.4859,1.4908,1.4974,1.5059,1.5116,1.5198,1.5341,1.5357,1.5402,1.5416,1.5427,1.5441,1.5517,1.5538,1.532,1.532,1.532,0,0,1.4401,1.4458,1.4512,1.4633,1.4685,1.4773,1.4724,1.4821,1.4887,1.4873,1.4994,1.5032,1.5108,1.5242,1.5303,1.5278,1.5504,1.544,1.5448,1.5456,1.5529,1.555,1.5568,1.5327,1.5326,1.5325,0,0,1.4542,1.4595,1.4698,1.4751,1.483,1.4858,1.4882,1.4959,1.4984,1.5106,1.5096,1.5174,1.5322,1.5375,1.5422,1.5579,1.5569,1.5605,1.5679,1.5752,1.577,1.5785,1.584,1.586,1.5619,1.5619,1.5619,0,1.4598,1.4732,1.4752,1.485,1.4902,1.4893,1.4997,1.5047,1.5149,1.5184,1.5154,1.5337,1.5387,1.5533,1.5571,1.5609,1.5637,1.5597,1.5766,1.5781,1.5796,1.5848,1.5869,1.5623,1.5622,1.5622,1.5621,0,1.4795,1.4888,1.4962,1.506,1.5121,1.5221,1.5255,1.5314,1.5318,1.5348,1.5471,1.553,1.5624,1.5659,1.5665,1.5804,1.5786,1.576,1.5706,1.582,1.587,1.589,1.5628,1.5627,1.5626,1.5625,0,0,1.4968,1.5073,1.51,1.5143,1.5229,1.53,1.5399,1.549,1.5539,1.5608,1.5691,1.5814,1.579,1.5843,1.5854,1.5919,1.6038,1.5885,1.5887,1.5911,1.6194,1.6213,1.6236,1.6031,1.6035,1.6038,1.6187,0,1.5116,1.5292,1.5311,1.5467,1.5552,1.5543,1.5629,1.5689,1.572,1.5795,1.5828,1.5915,1.5878,1.5909,1.5973,1.601,1.6095,1.6,1.6107,1.611,1.6089,1.6263,1.6284,1.6422,1.6207,1.6211,1.6213,0,1.5315,1.5389,1.5554,1.5624,1.5661,1.5738,1.5821,1.5894,1.5961,1.5979,1.6036,1.6038,1.6138,1.6078,1.6215,1.615,1.6194,1.6219,1.6225,1.6236,1.6169,1.6278,1.6467,1.6488,1.6244,1.6242,1.6239,0,1.5423,1.5564,1.568,1.5718,1.5804,1.5857,1.5896,1.5959,1.6012,1.6084,1.6118,1.6201,1.6247,1.631,1.6333,1.6288,1.6469,1.6412,1.6485,1.6484,1.6524,1.6522,1.6723,1.6552,1.6552,1.6552,1.6551,0,1.5587,1.5688,1.573,1.5801,1.5913,1.5933,1.6043,1.6078,1.6134,1.6211,1.6208,1.628,1.6306,1.6382,1.6401,1.651,1.6531,1.6547,1.6551,1.6548,1.6546,1.6578,1.6569,1.6557,1.6556,1.6555,1.6554,0,1.5728,1.576,1.5886,1.5956,1.5976,1.6055,1.6114,1.6183,1.621,1.6308,1.6332,1.6376,1.6465,1.6494,1.6601,1.6614,1.6741,1.6737,1.6719,1.672,1.6791,1.6784,1.702,1.7051,1.686,1.6862,1.6864,0,1.5832,1.5909,1.5987,1.6038,1.6078,1.6161,1.6214,1.6236,1.6291,1.6372,1.643,1.6518,1.659,1.6731,1.6772,1.6854,1.6851,1.6928,1.6863,1.6857,1.6852,1.6847,1.6854,1.694,1.6942,1.6944,1.6945,0,1.6011,1.6023,1.61,1.6182,1.6246,1.6312,1.6375,1.6417,1.6447,1.6509,1.66,1.6655,1.6764,1.6851,1.6933,1.6971,1.6963,1.6965,1.6986,1.6984,1.6971,1.6978,1.6752,1.696,1.6958,1.6957,1.6957,1.6956,1.6137,1.6204,1.6269,1.6354,1.6404,1.6462,1.6529,1.6565,1.6641,1.6732,1.6739,1.6837,1.6899,1.7009,1.705,1.7126,1.7104,1.7135,1.7143,1.715,1.7155,1.6958,1.7141,1.714,1.714,1.714,1.7139,0,1.6316,1.6357,1.6435,1.6523,1.659,1.6576,1.6644,1.6701,1.6787,1.6846,1.6916,1.7019,1.7102,1.7148,1.7231,1.7282,1.728,1.7303,1.73,1.7308,1.717,1.7144,1.7303,1.7303,1.7303,1.7303,1.7303,1.7303,1.6418,1.653,1.6549,1.6685,1.6724,1.682,1.6861,1.6914,1.6961,1.7076,1.7145,1.7174,1.7228,1.7314,1.7389,1.74,1.743,1.7456,1.7464,1.7335,1.7318,1.7302,1.7277,1.7462,1.7462,1.7596,1.7597,1.7598]}]]